Погода в Вилкавишкисе

Литва     54°39′00″N   23°01′47″E
В апреле 2022 года жителям России запретили посещать сайт meteo.paraplan.net по решению Генеральной прокуратуры. Аудитория сайта уменьшилась в 10 раз. Владельцы сайта не видят смысла в поддержке погодного сервера в таких условиях. Сайт будет закрыт в октябре.
темп.,
°C
ветер,
м/с
пор.,
м/с
влажн.,
%
обл.,
%
осадки,
мм/ч
давл.,
гПа
погр.,
м
4 октября, вт
вт400:00+10сз81566100 0.0 10061040
03:00+10сз81572100 0.0 1006916
06:00+10сз71377100 0.0 10061045
09:00+10сз8147595 0.1 10071088
12:00+14сз914602 0.0 10091412
15:00+16сз8125410 0.0 10101762
18:00+13сз812700 0.0 10131039
21:00+10зсз61383100 0.0 1015515
5 октября, ср
ср500:00+8з41195100 0.0 1017302
03:00+9зюз41091100 0.0 1017244
06:00+10зюз41096100 0.0 1017304
09:00+11зюз51087100 0.0 1017357
12:00+15зюз61068100 0.0 1016682
15:00+16зюз6960100 0.0 10161066
18:00+15зюз4965100 0.0 1016370
21:00+12ююз41075100 0.0 1016209
6 октября, чт
чт600:00+11юз41077100 0.0 1016210
03:00+10юз4108135 0.0 1016205
06:00+10юз4108623 0.0 1015206
09:00+12юз512805 0.0 1016319
12:00+17зюз710625 0.0 1016636
15:00+16з81373100 0.1 10181108
18:00+14з814722 0.3 10201180
21:00+12з714811 0.3 1023802
7 октября, пт
пт700:00+11з6138591 0.0 1025754
03:00+11зюз6128490 0.0 1026792
06:00+10зюз5138836 0.0 1027477
09:00+9зюз411890 0.0 1027355
12:00+14зюз68630 0.0 1027741
15:00+17зюз68500 0.0 10261285
18:00+14юз35605 0.0 102497
21:00+11ююз410697 0.0 1023154
8 октября, сб
сб800:00+10ю4127564 0.0 1022220
03:00+10ю5147294 0.0 1019314
06:00+10ю61475100 0.0 1017378
09:00+11ююз61478100 0.0 1015418
12:00+15зюз812555 0.0 10141019
15:00+17зюз8124979 0.0 10141734
18:00+14з611635 0.1 1015926
21:00+10зюз512750 0.1 1016462